Terminal Aerodrome Forecast
Issued by NWS Duluth, MN

Home | Current Version | Previous Version | Text Only | Print | Product List | Glossary On
Versions: 1 2 3 4 5 6 7 8 9 10 11 12 13 14 15 16 17 18 19 20 21 22 23 24 25 26 27 28 29 30 31 32
000
FTUS43 KDLH 221800 AAA
TAFDLH
TAF AMD
KDLH 221835Z 2219/2318 12010KT 1/4SM -DZ FG VV002
      TEMPO 2219/2222 3/4SM -DZSN BR OVC004
     FM222200 11010KT 1 1/2SM -DZ BR OVC005
     FM230200 09010KT 1SM -DZ BR OVC004
     FM230700 07011G16KT 3/4SM -DZSN BR OVC002
     FM231300 07012G19KT 1SM -SN BR OVC005
      TEMPO 2314/2318 3/4SM -SN BR VV003=

USA.gov is the U.S. government's official web portal to all federal, state and local government web resources and services.